Regional Weather Roundup
Issued by NWS

Home | Current Version | Previous Version | Text Only | Print | Product List | Glossary On
Versions: 1 2 3 4 5 6 7 8 9 10 11 12 13 14 15 16 17 18 19 20 21 22 23 24 25 26 27 28 29 30 31 32 33 34 35 36 37 38 39 40 41 42 43 44 45 46 47 48 49 50
853
ASUS42 KTBW 011916
RWRFL
FLORIDA REGIONAL WEATHER ROUNDUP
NATIONAL WEATHER SERVICE TAMPA BAY RUSKIN FL
300 PM EDT SUN MAY 01 2016

NOTE: "FAIR" INDICATES FEW OR NO CLOUDS BELOW 12,000 FEET WITH NO
SIGNIFICANT WEATHER AND/OR OBSTRUCTIONS TO VISIBILITY.

FLZ001>010-012>015-112-114-115-012000-
PANHANDLE FLORIDA

CITY           SKY/WX    TMP DP  RH WIND       PRES   REMARKS
PENSACOLA      CLOUDY    81  74  79 SE10      30.01S
PENSACOLA NAS  PTSUNNY   80  73  79 E8        30.00S
CRESTVIEW      CLOUDY    85  67  54 S9        30.01F
DUKE FIELD     FAIR      84  69  61 S15       30.00S
VALPARAISO     PTSUNNY   82  72  72 SE10      30.01S
MARY ESTHER    CLOUDY    81  72  74 SE10      30.01
PANAMA CITY    FAIR      84  66  54 SE10      30.00F
TYNDALL AFB    CLOUDY    82  71  69 S12       30.01S
APALACHICOLA   MOSUNNY   81  73  76 SE10      30.03S

STATION/POSITION SKY/WX   TEMP    WIND        PRES    WAVE   SWELL
                          AIR SEA DIR/SP/G            HT/PER HT/PER
                          (F)     (DEG/KT/KT) (MB)    (FT/S) (FT/S)
30.1N   87.6W              77 76   90/  4/  6 1014.9R   4/ 7   3/ 7
29.2N   88.2W              77 76  150/ 10/ 12 1014.6S
28.8N   86.0W              78 79  150/ 16/ 17 1015.5    4/ 6
PANAMA CITY BEAC           77 78  140/ 12/ 14 1016.9R
TOWER C                    75     140/ 11/ 11 1017.1S
28.5N   84.5W              76 76  140/ 12/ 14 1015.9S   4/ 7   3/ 7

$$
FLZ011-016>038-118-127-128-134-139-239-012000-
NORTH FLORIDA

CITY           SKY/WX    TMP DP  RH WIND       PRES   REMARKS
MARIANNA       CLOUDY    86  66  51 VRB6      30.00F
TALLAHASSEE    PTSUNNY   86  61  42 S12       30.03S
PERRY          PTSUNNY   86  68  55 S8G16     30.04S
LIVE OAK       PTSUNNY   90  64  43 S3        30.03F
CROSS CITY       N/A     87  65  47 VRB7      30.01F
LAKE CITY      FAIR      86  64  48 S5        30.02F
GAINESVILLE    SUNNY     88  60  38 SE5       30.01F
WILLISTON      FAIR      91  63  38 SE5       30.01F
PALATKA        PTSUNNY   90  90 100 S6        30.02F HX 129
MAYPORT NAS    SUNNY     82  69  64 SE15      30.04F
JACKSONVILLE   MOSUNNY   85  69  58 E12       30.01F
JAX NAS        MOSUNNY   87  62  43 S7        30.03F
JAX CECIL      MOSUNNY   88  63  42 S9        30.02F
FERNANDINA BEA FAIR      84  70  61 SE14G22   30.03F
ST AUGUSTINE   MOSUNNY   84  66  54 SE20      30.04F
PALM COAST     SUNNY     84  70  61 E12       30.03F

STATION/POSITION SKY/WX   TEMP    WIND        PRES    WAVE   SWELL
                          AIR SEA DIR/SP/G            HT/PER HT/PER
                          (F)     (DEG/KT/KT) (MB)    (FT/S) (FT/S)
SHELL POINT                79     160/ 11/ 13 1016.0
KEATON BEACH               78     180/ 10/ 12 1017.0R
CEDAR KEY                  79     180/  7/  9 1017.5F
FERNANDINA                 81 76  140/  9/ 16 1017.4F
30.7N   81.3W                 75                N/A     3/ 6
MAYPORT                    79 76  150/ 11/ 15 1017.7F
ST AUGUSTINE               75 74  140/ 11/ 12 1017.8F

$$
FLZ040-043>046-052-053-057-058-063-144-012000-
INTERIOR CENTRAL FLORIDA

CITY           SKY/WX    TMP DP  RH WIND       PRES   REMARKS
OCALA          MOSUNNY   90  61  37 S6        30.01F
THE VILLAGES     N/A     88  64  45 VRB7      29.92F
LEESBURG       SUNNY     88  61  40 SE9       30.03F
SANFORD        SUNNY     88  63  43 SE9       30.02F
ORLANDO EXEC   MOSUNNY   90  64  42 CALM      30.02F
ORLANDO INTL   PTSUNNY   88  63  43 E9        30.01F
KISSIMMEE      PTSUNNY   86  66  51 SE9       30.02F
WINTER HAVEN   PTSUNNY   90  63  40 VRB7      30.02F
LAKELAND       PTSUNNY   88  64  45 S6        30.01F
BARTOW         PTSUNNY   88  61  40 E13       30.01F
OKEECHOBEE     PTSUNNY   86  68  54 S8        30.01F

$$
FLZ041-047-054-059-064-141-147-012000-
EAST CENTRAL FLORIDA

CITY           SKY/WX    TMP DP  RH WIND       PRES   REMARKS
ORMOND BEACH   MOSUNNY   82  68  61 SE17      30.03F
DAYTONA BEACH  PTSUNNY   85  70  60 E15G21    30.03F
DELAND           N/A     86  63  45 S8        30.03F
NEW SMYRNA BEA MOSUNNY   79  68  69 E16G24    30.05F
JFK SPACE CTR  MOSUNNY   84  68  58 SE12G18   30.03S
TITUSVILLE     MOSUNNY   84  66  54 SE17      30.05S
CAPE CANAVERAL SUNNY     84  68  59 SE14      30.03F
PATRICK AFB    SUNNY     84  71  65 SE14      30.04S
MELBOURNE      SUNNY     84  68  58 SE14G22   30.03F
VERO BEACH     SUNNY     85  67  54 E13       30.03F
FT PIERCE      SUNNY     82  67  60 E18       30.02F
STUART         MOSUNNY   86  70  58 E13G23    30.04

STATION/POSITION SKY/WX   TEMP    WIND        PRES    WAVE   SWELL
                          AIR SEA DIR/SP/G            HT/PER HT/PER
                          (F)     (DEG/KT/KT) (MB)    (FT/S) (FT/S)
28.5N   80.2W              78 78  140/ 10/ 10 1017.8F
28.9N   78.5W              77 78  150/  8/ 10 1018.7S
TRIDENT PIER               83 79  120/  7/ 11 1017.6F
28.4N   80.5W                 78                N/A     3/ 5
27.5N   80.2W                 78                N/A     3/11   2/11

$$
FLZ050-056-061-142-242-148-248-149-249-151-251-155-255-
160-260-012000-
WEST CENTRAL FLORIDA

CITY           SKY/WX    TMP DP  RH WIND       PRES   REMARKS
CRYSTAL RIVER  FAIR      86  66  51 NW7       30.01S
INVERNESS      PTSUNNY   90  66  45 S8        30.01F
BROOKSVILLE    MOSUNNY   88  62  41 SE9       30.01F
ZEPHYRHILLS    FAIR      91  56  31 S8        30.02F
CLEARWATER AIR FAIR      86  64  48 SE7       30.00F
ST PETE CLEARW PTSUNNY   88  66  48 E8        30.00F
TAMPA INTL     MOSUNNY   89  61  38 SE8       30.00F
TAMPA EXEC     MOSUNNY   91  63  38 S12       30.01F
PLANT CITY     MOSUNNY   90  66  45 E7        30.02F
MACDILL AFB    MOSUNNY   91  67  43 E9        29.99F
PETER O KNIGHT SUNNY     91  64  40 S9        30.00F
ST PETERSBURG  SUNNY     87  67  51 E5        29.98F
SARASOTA       MOSUNNY   85  69  58 SW13      29.99F
VENICE         NOT AVBL

STATION/POSITION SKY/WX   TEMP    WIND        PRES    WAVE   SWELL
                          AIR SEA DIR/SP/G            HT/PER HT/PER
                          (F)     (DEG/KT/KT) (MB)    (FT/S) (FT/S)
27.3N   84.2W                 80                N/A     4/ 6
CLEARWATER BEACH           80 80  220/ 11/ 13 1016.4F
MIDDLE TAMPA BAY NOT AVBL
VENICE                     80 82  200/ 12/ 13 1015.9F

$$
FLZ066-069-070-075>078-162-262-165-265-012000-
SOUTHWEST FLORIDA AND KEYS

CITY           SKY/WX    TMP DP  RH WIND       PRES   REMARKS
PUNTA GORDA    MOSUNNY   87  66  49 SE8       29.99F
FT MYERS       MOSUNNY   90  63  40 SE10      29.97F
SOUTHWEST INTL MOSUNNY   88  63  43 SE6G16    29.97F
NAPLES         PTSUNNY   84  70  62 S10       29.97F
MARCO ISLAND   SUNNY     88  68  51 S10       29.98F
MARATHON       SUNNY     86  70  58 SE10      29.97F
KEY WEST NAS   MOSUNNY   85  70  60 E15       29.97F
KEY WEST INTL  MOSUNNY   84  72  67 E12       29.97F

STATION/POSITION SKY/WX   TEMP    WIND        PRES    WAVE   SWELL
                          AIR SEA DIR/SP/G            HT/PER HT/PER
                          (F)     (DEG/KT/KT) (MB)    (FT/S) (FT/S)
NAPLES                        81              1015.4F
26.0N   85.6W              80 80  120/ 14/ 16 1014.3F   5/ 7   3/ 7
DRY TORTUGAS               79     110/ 10/ 11 1014.9F
SAND KEY                   79     120/ 15/ 17 1015.1F
LONG KEY                   80 81  110/ 11/ 13 1016.1F
MOLASSES REEF              79 81  120/ 11/ 12 1016.2F

$$
FLZ067-068-071>074-168-172>174-012000-
SOUTHEAST FLORIDA

CITY           SKY/WX    TMP DP  RH WIND       PRES   REMARKS
W PALM BEACH   PTSUNNY   83  68  60 SE14      30.03F
BOCA RATON     MOSUNNY   84  70  61 SE14      30.02F
FT LAUDER-EXEC MOSUNNY   85  65  51 SE13G20   30.01F
FT LAUDERDALE  MOSUNNY   83  68  60 VRB6      30.00F
POMPANO BEACH  MOSUNNY   84  70  62 E12       30.01F
PEMBROKE PINES MOSUNNY   87  65  47 E15G21    30.02F
OPA LOCKA      MOSUNNY   88  65  46 SE12G20   30.00F
MIAMI          MOSUNNY   85  67  54 SE10      30.00F
WEST KENDALL   PTSUNNY   84  66  54 E12G20    30.00F
HOMESTEAD      MOSUNNY   84  68  58 SE8       29.99F

STATION/POSITION SKY/WX   TEMP    WIND        PRES    WAVE   SWELL
                          AIR SEA DIR/SP/G            HT/PER HT/PER
                          (F)     (DEG/KT/KT) (MB)    (FT/S) (FT/S)
PORT EVERGLADES            83     110/  4/  7 1016.9F
VIRGINIA KEY               80 81  100/  9/ 11 1016.8F
LAKE WORTH                 79 79  130/ 11/ 12 1017.1F
SETTLEMENT POINT           81     150/ 10/ 12 1017.6F

$$





USA.gov is the U.S. government's official web portal to all federal, state and local government web resources and services.